Regional Weather Roundup
Issued by NWS

Home | Current Version | Previous Version | Graphics & Text | Print | Product List | Glossary On
Versions: 1 2 3 4 5 6 7 8 9 10 11 12 13 14 15 16 17 18 19 20 21 22 23 24 25 26 27 28 29 30 31 32 33 34 35 36 37 38 39 40 41 42 43 44 45 46 47 48 49 50
000
ASUS43 KLMK 300402
RWRKY
KENTUCKY REGIONAL WEATHER ROUNDUP
NATIONAL WEATHER SERVICE LOUISVILLE KY
1200 AM EDT SUN AUG 30 2015

NOTE "FAIR" INDICATES FEW OR NO CLOUDS BELOW 12,000 FEET
WITH NO SIGNIFICANT WEATHER AND/OR OBSTRUCTIONS TO VISIBILITY.

KYZ001>023-026-027-061>063-070>075-300500-
WESTERN AND SOUTH CENTRAL KENTUCKY

CITY           SKY/WX    TMP DP  RH WIND       PRES   REMARKS
PADUCAH        CLOUDY    74  69  85 CALM      30.04R
HENDERSON      CLOUDY    73  68  83 CALM      30.04R
OWENSBORO      MOCLDY    74  69  84 SE7       30.06S
HOPKINSVILLE   MOCLDY    75  69  81 S7        30.07S
BOWLING GREEN  PTCLDY    73  67  81 S5        30.09F
GLASGOW        PTCLDY    71  66  83 S5        30.11S
$$

KYZ024-025-028>034-038-045-046-053-300500-
NORTH CENTRAL KENTUCKY

CITY           SKY/WX    TMP DP  RH WIND       PRES   REMARKS
LOUISVILLE/SDF MOCLDY    75  67  76 SE3       30.07S
LOUISVILLE/LOU PTCLDY    74  66  76 S5        30.08S
FORT KNOX      PTCLDY    73  68  85 S6        30.07F
$$

KYZ035>037-039>044-047>052-055>060-089>105-300500-
NORTHEAST KENTUCKY

CITY           SKY/WX    TMP DP  RH WIND       PRES   REMARKS
LEXINGTON      CLEAR     72  67  84 S5        30.11F
COVINGTON      MOCLDY    72  67  84 S6        30.08S
FRANKFORT      CLEAR     73  65  75 S7        30.09S
$$

KYZ054-064>069-076>088-106>120-300500-
SOUTHEAST KENTUCKY

CITY           SKY/WX    TMP DP  RH WIND       PRES   REMARKS
JACKSON        CLEAR     73  63  70 SE3       30.14F
LONDON         MOCLDY    71  64  78 CALM      30.14F
SOMERSET       NOT AVBL
MIDDLESBORO    PTCLDY    67  65  94 CALM      30.16F
MONTICELLO     PTCLDY    69  69 100 CALM      30.15F
$$



USA.gov is the U.S. government's official web portal to all federal, state and local government web resources and services.